Location: Omaha
(41.2590°N, 95.9380°W)
Time: 19:32:47
(UTC-05:00)

OTV 5 (USA 277) - Pass Details

Date: 09 October 2017
Orbit: 404 x 417 km, 43.0° (Epoch: 07 September)

Event Time Altitude Azimuth Distance (km) Brightness Sun altitude
Rises 19:30:31 0° 211° (SSW) 2,342 ? -8.1°
Reaches altitude 10° 19:33:03 10° 192° (SSW) 1,483 ? -8.5°
Maximum altitude 19:35:25 18° 146° (SSE) 1,090 ? -9.0°
Enters shadow 19:37:20 12° 107° (ESE) 1,358 ? -9.3°
